Information on these data can be found in provided Readme document
Contact Info: Zachary Fasnacht (zachary.fasnacht@ssaihq.com); Nickolay Krotkov (nickolay.a.krotkov@nasa.gov); Lok Lamsal (lok.lamsal@nasa.gov)

FillValue: -999.
ScaleFactor: 1e15
Units: molecules/cm^2

Date(yyyy-mm-dd),City,Country,LonCenter,LatCenter,BoundingCoordinates,Median,Q1,Q3,Mean,Baseline_Median,Baseline_Q1,Baseline_Q3,Baseline_Mean,NumGoodSamples,NumTotalSamples
2015-01-01,Chennai,India,80.2833,13.0833,[79.7833 12.5833 80.7833 13.5833],1.709,0.781,2.811,2.008,2.167,1.093,3.199,2.41,123.0,512.0
2015-01-02,Chennai,India,80.2833,13.0833,[79.7833 12.5833 80.7833 13.5833],1.2,0.623,3.071,1.973,2.092,1.041,3.195,2.393,113.0,540.0
2015-01-03,Chennai,India,80.2833,13.0833,[79.7833 12.5833 80.7833 13.5833],1.581,0.781,2.345,1.83,2.143,1.048,3.111,2.376,94.0,519.0
2015-01-04,Chennai,India,80.2833,13.0833,[79.7833 12.5833 80.7833 13.5833],1.581,0.754,2.345,1.767,2.123,1.017,3.171,2.374,129.0,533.0
2015-01-05,Chennai,India,80.2833,13.0833,[79.7833 12.5833 80.7833 13.5833],1.565,0.754,2.422,1.758,2.086,1.054,3.2,2.374,148.0,533.0
2015-01-06,Chennai,India,80.2833,13.0833,[79.7833 12.5833 80.7833 13.5833],1.609,0.754,2.584,1.805,2.035,1.065,3.229,2.369,176.0,524.0
2015-01-07,Chennai,India,80.2833,13.0833,[79.7833 12.5833 80.7833 13.5833],1.609,0.754,2.584,1.805,2.087,1.064,3.206,2.405,176.0,533.0
2015-01-08,Chennai,India,80.2833,13.0833,[79.7833 12.5833 80.7833 13.5833],1.641,0.754,2.536,1.844,2.11,1.076,3.245,2.426,197.0,511.0
2015-01-09,Chennai,India,80.2833,13.0833,[79.7833 12.5833 80.7833 13.5833],1.641,0.754,2.536,1.848,2.082,1.079,3.258,2.428,194.0,533.0
2015-01-10,Chennai,India,80.2833,13.0833,[79.7833 12.5833 80.7833 13.5833],1.641,0.754,2.536,1.848,1.995,1.031,3.217,2.397,194.0,482.0
2015-01-11,Chennai,India,80.2833,13.0833,[79.7833 12.5833 80.7833 13.5833],1.719,0.857,2.626,1.957,1.985,1.052,3.193,2.374,182.0,512.0
2015-01-12,Chennai,India,80.2833,13.0833,[79.7833 12.5833 80.7833 13.5833],1.672,0.831,2.524,1.778,1.939,1.005,3.151,2.287,172.0,495.0
2015-01-13,Chennai,India,80.2833,13.0833,[79.7833 12.5833 80.7833 13.5833],1.685,0.857,2.584,1.908,1.896,1.004,3.118,2.281,200.0,504.0
2015-01-14,Chennai,India,80.2833,13.0833,[79.7833 12.5833 80.7833 13.5833],1.641,0.844,2.536,1.86,1.813,0.982,2.957,2.219,176.0,502.0
2015-01-15,Chennai,India,80.2833,13.0833,[79.7833 12.5833 80.7833 13.5833],1.641,0.831,2.524,1.843,1.739,0.975,2.954,2.244,183.0,489.0
2015-01-16,Chennai,India,80.2833,13.0833,[79.7833 12.5833 80.7833 13.5833],1.685,0.831,2.536,1.889,1.755,0.955,2.944,2.227,174.0,510.0
2015-01-17,Chennai,India,80.2833,13.0833,[79.7833 12.5833 80.7833 13.5833],1.641,0.764,2.536,1.867,1.766,0.947,2.945,2.249,181.0,480.0
2015-01-18,Chennai,India,80.2833,13.0833,[79.7833 12.5833 80.7833 13.5833],1.579,0.69,2.684,1.859,1.795,0.936,2.956,2.243,166.0,509.0
2015-01-19,Chennai,India,80.2833,13.0833,[79.7833 12.5833 80.7833 13.5833],1.628,0.764,2.584,1.951,1.791,0.954,2.915,2.197,143.0,488.0
2015-01-20,Chennai,India,80.2833,13.0833,[79.7833 12.5833 80.7833 13.5833],1.587,0.698,2.536,1.949,1.77,0.856,3.049,2.193,142.0,502.0
2015-01-21,Chennai,India,80.2833,13.0833,[79.7833 12.5833 80.7833 13.5833],1.579,0.64,2.498,1.815,1.758,0.831,3.062,2.157,126.0,501.0
2015-01-22,Chennai,India,80.2833,13.0833,[79.7833 12.5833 80.7833 13.5833],1.418,0.586,2.498,1.77,1.718,0.823,3.011,2.093,144.0,494.0
2015-01-23,Chennai,India,80.2833,13.0833,[79.7833 12.5833 80.7833 13.5833],1.235,0.538,2.259,1.704,1.65,0.82,2.972,2.14,123.0,502.0
2015-01-24,Chennai,India,80.2833,13.0833,[79.7833 12.5833 80.7833 13.5833],1.336,0.626,2.334,1.725,1.704,0.839,3.052,2.202,145.0,480.0
2015-01-25,Chennai,India,80.2833,13.0833,[79.7833 12.5833 80.7833 13.5833],1.336,0.626,2.334,1.725,1.758,0.849,3.095,2.267,145.0,531.0
2015-01-26,Chennai,India,80.2833,13.0833,[79.7833 12.5833 80.7833 13.5833],1.215,0.69,2.117,1.556,1.686,0.837,3.107,2.241,170.0,511.0
2015-01-27,Chennai,India,80.2833,13.0833,[79.7833 12.5833 80.7833 13.5833],1.222,0.714,2.132,1.607,1.78,0.882,3.142,2.323,150.0,541.0
2015-01-28,Chennai,India,80.2833,13.0833,[79.7833 12.5833 80.7833 13.5833],1.215,0.714,2.044,1.422,1.755,0.843,3.116,2.25,137.0,522.0
2015-01-29,Chennai,India,80.2833,13.0833,[79.7833 12.5833 80.7833 13.5833],1.235,0.733,2.096,1.57,1.748,0.857,3.082,2.274,165.0,530.0
2015-01-30,Chennai,India,80.2833,13.0833,[79.7833 12.5833 80.7833 13.5833],1.235,0.733,2.096,1.578,1.68,0.836,2.994,2.195,158.0,530.0
2015-01-31,Chennai,India,80.2833,13.0833,[79.7833 12.5833 80.7833 13.5833],1.245,0.714,2.117,1.599,1.734,0.914,2.992,2.19,182.0,516.0
2015-02-01,Chennai,India,80.2833,13.0833,[79.7833 12.5833 80.7833 13.5833],1.245,0.714,2.117,1.605,1.737,0.919,3.033,2.209,175.0,537.0
2015-02-02,Chennai,India,80.2833,13.0833,[79.7833 12.5833 80.7833 13.5833],1.278,0.714,2.117,1.585,1.745,0.895,3.03,2.229,195.0,507.0
2015-02-03,Chennai,India,80.2833,13.0833,[79.7833 12.5833 80.7833 13.5833],1.245,0.64,2.117,1.525,1.767,0.887,3.055,2.264,183.0,539.0
2015-02-04,Chennai,India,80.2833,13.0833,[79.7833 12.5833 80.7833 13.5833],1.291,0.714,2.061,1.535,1.743,0.881,2.976,2.246,175.0,516.0
2015-02-05,Chennai,India,80.2833,13.0833,[79.7833 12.5833 80.7833 13.5833],1.305,0.733,2.061,1.596,1.762,0.924,2.958,2.248,198.0,532.0
2015-02-06,Chennai,India,80.2833,13.0833,[79.7833 12.5833 80.7833 13.5833],1.306,0.771,2.083,1.661,1.771,0.919,2.842,2.232,198.0,530.0
2015-02-07,Chennai,India,80.2833,13.0833,[79.7833 12.5833 80.7833 13.5833],1.377,0.771,2.157,1.728,1.719,0.901,2.801,2.167,223.0,524.0
2015-02-08,Chennai,India,80.2833,13.0833,[79.7833 12.5833 80.7833 13.5833],1.306,0.778,2.122,1.717,1.681,0.833,2.743,2.091,201.0,531.0
2015-02-09,Chennai,India,80.2833,13.0833,[79.7833 12.5833 80.7833 13.5833],1.4,0.771,2.132,1.715,1.693,0.86,2.748,2.071,222.0,509.0
2015-02-10,Chennai,India,80.2833,13.0833,[79.7833 12.5833 80.7833 13.5833],1.716,0.799,2.414,1.886,1.73,0.868,2.805,2.098,196.0,530.0
2015-02-11,Chennai,India,80.2833,13.0833,[79.7833 12.5833 80.7833 13.5833],1.716,0.799,2.414,1.886,1.693,0.848,2.783,2.056,196.0,480.0
2015-02-12,Chennai,India,80.2833,13.0833,[79.7833 12.5833 80.7833 13.5833],1.781,0.778,2.591,1.952,1.759,0.91,2.819,2.119,183.0,510.0
2015-02-13,Chennai,India,80.2833,13.0833,[79.7833 12.5833 80.7833 13.5833],1.681,0.633,2.514,1.85,1.763,0.887,2.871,2.129,175.0,494.0
2015-02-14,Chennai,India,80.2833,13.0833,[79.7833 12.5833 80.7833 13.5833],1.658,0.633,2.591,1.856,1.782,0.911,2.894,2.158,205.0,502.0
2015-02-15,Chennai,India,80.2833,13.0833,[79.7833 12.5833 80.7833 13.5833],1.658,0.633,2.591,1.845,1.739,0.854,2.936,2.137,209.0,503.0
2015-02-16,Chennai,India,80.2833,13.0833,[79.7833 12.5833 80.7833 13.5833],1.658,0.62,2.658,1.847,1.719,0.834,2.859,2.088,235.0,489.0
2015-02-17,Chennai,India,80.2833,13.0833,[79.7833 12.5833 80.7833 13.5833],1.672,0.562,2.899,1.887,1.724,0.826,2.887,2.07,223.0,511.0
2015-02-18,Chennai,India,80.2833,13.0833,[79.7833 12.5833 80.7833 13.5833],1.587,0.62,3.1,1.91,1.719,0.873,2.923,2.067,243.0,479.0
2015-02-19,Chennai,India,80.2833,13.0833,[79.7833 12.5833 80.7833 13.5833],1.587,0.562,3.265,1.959,1.705,0.864,2.94,2.07,233.0,510.0
2015-02-20,Chennai,India,80.2833,13.0833,[79.7833 12.5833 80.7833 13.5833],1.377,0.602,3.06,1.862,1.648,0.851,2.924,2.059,210.0,487.0
2015-02-21,Chennai,India,80.2833,13.0833,[79.7833 12.5833 80.7833 13.5833],1.377,0.571,2.851,1.789,1.658,0.865,2.935,2.094,226.0,502.0
2015-02-22,Chennai,India,80.2833,13.0833,[79.7833 12.5833 80.7833 13.5833],1.264,0.451,2.425,1.589,1.644,0.851,2.914,2.091,219.0,498.0
2015-02-23,Chennai,India,80.2833,13.0833,[79.7833 12.5833 80.7833 13.5833],1.324,0.48,2.504,1.655,1.64,0.867,2.992,2.107,245.0,493.0
2015-02-24,Chennai,India,80.2833,13.0833,[79.7833 12.5833 80.7833 13.5833],1.253,0.48,2.404,1.629,1.616,0.792,2.996,2.08,245.0,501.0
2015-02-25,Chennai,India,80.2833,13.0833,[79.7833 12.5833 80.7833 13.5833],1.324,0.502,2.678,1.686,1.59,0.716,3.0,2.038,264.0,479.0
2015-02-26,Chennai,India,80.2833,13.0833,[79.7833 12.5833 80.7833 13.5833],1.324,0.502,2.678,1.686,1.625,0.78,2.932,2.05,264.0,530.0
2015-02-27,Chennai,India,80.2833,13.0833,[79.7833 12.5833 80.7833 13.5833],1.361,0.571,2.402,1.656,1.633,0.778,2.902,2.023,288.0,511.0
2015-02-28,Chennai,India,80.2833,13.0833,[79.7833 12.5833 80.7833 13.5833],1.337,0.56,2.382,1.64,1.604,0.748,2.822,1.989,293.0,540.0
2015-03-01,Chennai,India,80.2833,13.0833,[79.7833 12.5833 80.7833 13.5833],1.264,0.496,2.232,1.543,1.612,0.731,2.786,1.955,283.0,522.0
2015-03-02,Chennai,India,80.2833,13.0833,[79.7833 12.5833 80.7833 13.5833],1.277,0.496,2.331,1.58,1.641,0.752,2.843,1.978,283.0,531.0
2015-03-03,Chennai,India,80.2833,13.0833,[79.7833 12.5833 80.7833 13.5833],1.253,0.496,2.232,1.559,1.629,0.798,2.862,1.985,284.0,530.0
2015-03-04,Chennai,India,80.2833,13.0833,[79.7833 12.5833 80.7833 13.5833],1.243,0.531,2.232,1.563,1.744,0.846,2.911,2.036,300.0,515.0
2015-03-05,Chennai,India,80.2833,13.0833,[79.7833 12.5833 80.7833 13.5833],1.17,0.496,2.182,1.5,1.718,0.818,2.908,2.012,288.0,536.0
2015-03-06,Chennai,India,80.2833,13.0833,[79.7833 12.5833 80.7833 13.5833],1.229,0.56,2.182,1.52,1.717,0.798,2.857,1.998,308.0,506.0
2015-03-07,Chennai,India,80.2833,13.0833,[79.7833 12.5833 80.7833 13.5833],1.232,0.496,2.232,1.552,1.746,0.818,2.88,2.018,296.0,537.0
2015-03-08,Chennai,India,80.2833,13.0833,[79.7833 12.5833 80.7833 13.5833],1.232,0.56,2.215,1.545,1.758,0.829,2.868,2.001,276.0,515.0
2015-03-09,Chennai,India,80.2833,13.0833,[79.7833 12.5833 80.7833 13.5833],1.352,0.618,2.461,1.611,1.762,0.834,2.861,1.972,292.0,533.0
2015-03-10,Chennai,India,80.2833,13.0833,[79.7833 12.5833 80.7833 13.5833],1.217,0.573,2.474,1.563,1.812,0.906,2.878,2.015,284.0,531.0
2015-03-11,Chennai,India,80.2833,13.0833,[79.7833 12.5833 80.7833 13.5833],1.376,0.643,2.561,1.635,1.857,0.92,2.927,2.027,289.0,525.0
2015-03-12,Chennai,India,80.2833,13.0833,[79.7833 12.5833 80.7833 13.5833],1.277,0.642,2.474,1.607,1.87,1.01,2.935,2.081,292.0,533.0
2015-03-13,Chennai,India,80.2833,13.0833,[79.7833 12.5833 80.7833 13.5833],1.328,0.642,2.531,1.615,1.863,0.995,2.953,2.068,314.0,511.0
2015-03-14,Chennai,India,80.2833,13.0833,[79.7833 12.5833 80.7833 13.5833],1.245,0.541,2.581,1.634,1.886,0.971,2.95,2.078,288.0,530.0
2015-03-15,Chennai,India,80.2833,13.0833,[79.7833 12.5833 80.7833 13.5833],1.194,0.541,2.581,1.615,1.889,0.983,2.992,2.102,263.0,479.0
2015-03-16,Chennai,India,80.2833,13.0833,[79.7833 12.5833 80.7833 13.5833],1.431,0.643,2.809,1.78,1.952,1.029,3.064,2.161,272.0,510.0
2015-03-17,Chennai,India,80.2833,13.0833,[79.7833 12.5833 80.7833 13.5833],1.471,0.645,2.711,1.744,1.909,0.973,2.969,2.11,264.0,493.0
2015-03-18,Chennai,India,80.2833,13.0833,[79.7833 12.5833 80.7833 13.5833],1.609,0.684,2.809,1.837,2.008,1.033,3.068,2.162,268.0,503.0
2015-03-19,Chennai,India,80.2833,13.0833,[79.7833 12.5833 80.7833 13.5833],1.657,0.809,2.82,1.906,1.93,1.03,2.993,2.139,271.0,503.0
2015-03-20,Chennai,India,80.2833,13.0833,[79.7833 12.5833 80.7833 13.5833],1.664,0.809,2.82,1.942,1.934,1.046,2.973,2.134,290.0,491.0
2015-03-21,Chennai,India,80.2833,13.0833,[79.7833 12.5833 80.7833 13.5833],1.65,0.737,2.82,1.957,1.954,1.062,3.018,2.17,277.0,514.0
2015-03-22,Chennai,India,80.2833,13.0833,[79.7833 12.5833 80.7833 13.5833],1.657,0.833,2.681,1.912,1.986,1.092,3.025,2.182,297.0,483.0
2015-03-23,Chennai,India,80.2833,13.0833,[79.7833 12.5833 80.7833 13.5833],1.704,0.847,2.82,1.979,1.974,1.069,2.964,2.169,283.0,515.0
2015-03-24,Chennai,India,80.2833,13.0833,[79.7833 12.5833 80.7833 13.5833],1.559,0.785,2.759,1.879,1.985,1.099,3.051,2.201,266.0,490.0
2015-03-25,Chennai,India,80.2833,13.0833,[79.7833 12.5833 80.7833 13.5833],1.555,0.785,2.509,1.824,1.907,1.067,2.936,2.128,282.0,506.0
2015-03-26,Chennai,India,80.2833,13.0833,[79.7833 12.5833 80.7833 13.5833],1.409,0.746,2.474,1.729,1.872,1.072,2.904,2.106,275.0,505.0
2015-03-27,Chennai,India,80.2833,13.0833,[79.7833 12.5833 80.7833 13.5833],1.555,0.782,2.504,1.778,1.867,1.093,2.843,2.091,280.0,499.0
2015-03-28,Chennai,India,80.2833,13.0833,[79.7833 12.5833 80.7833 13.5833],1.55,0.776,2.501,1.761,1.872,1.063,2.831,2.071,277.0,507.0
2015-03-29,Chennai,India,80.2833,13.0833,[79.7833 12.5833 80.7833 13.5833],1.404,0.746,2.483,1.712,1.84,1.072,2.727,2.056,299.0,486.0
2015-03-30,Chennai,India,80.2833,13.0833,[79.7833 12.5833 80.7833 13.5833],1.404,0.746,2.483,1.712,1.819,1.053,2.684,2.015,299.0,537.0
2015-03-31,Chennai,India,80.2833,13.0833,[79.7833 12.5833 80.7833 13.5833],1.393,0.746,2.185,1.582,1.801,1.044,2.614,1.953,292.0,512.0
2015-04-01,Chennai,India,80.2833,13.0833,[79.7833 12.5833 80.7833 13.5833],1.375,0.746,2.09,1.561,1.81,1.06,2.602,1.96,303.0,541.0
2015-04-02,Chennai,India,80.2833,13.0833,[79.7833 12.5833 80.7833 13.5833],1.273,0.677,1.866,1.397,1.715,0.983,2.514,1.86,292.0,526.0
2015-04-03,Chennai,India,80.2833,13.0833,[79.7833 12.5833 80.7833 13.5833],1.231,0.576,1.833,1.317,1.708,0.958,2.484,1.818,296.0,537.0
2015-04-04,Chennai,India,80.2833,13.0833,[79.7833 12.5833 80.7833 13.5833],1.201,0.605,1.823,1.29,1.7,0.93,2.451,1.788,296.0,533.0
2015-04-05,Chennai,India,80.2833,13.0833,[79.7833 12.5833 80.7833 13.5833],1.231,0.62,1.833,1.317,1.711,0.955,2.46,1.798,311.0,519.0
2015-04-06,Chennai,India,80.2833,13.0833,[79.7833 12.5833 80.7833 13.5833],1.193,0.554,1.833,1.285,1.697,0.908,2.452,1.765,297.0,544.0
2015-04-07,Chennai,India,80.2833,13.0833,[79.7833 12.5833 80.7833 13.5833],1.201,0.565,1.963,1.32,1.646,0.918,2.447,1.744,318.0,512.0
2015-04-08,Chennai,India,80.2833,13.0833,[79.7833 12.5833 80.7833 13.5833],1.273,0.565,2.09,1.37,1.662,0.926,2.403,1.747,301.0,545.0
2015-04-09,Chennai,India,80.2833,13.0833,[79.7833 12.5833 80.7833 13.5833],1.284,0.612,2.09,1.4,1.688,0.929,2.5,1.781,279.0,522.0
2015-04-10,Chennai,India,80.2833,13.0833,[79.7833 12.5833 80.7833 13.5833],1.32,0.62,2.176,1.46,1.719,0.967,2.581,1.822,294.0,537.0
2015-04-11,Chennai,India,80.2833,13.0833,[79.7833 12.5833 80.7833 13.5833],1.284,0.616,2.129,1.417,1.679,0.967,2.537,1.803,286.0,536.0
2015-04-12,Chennai,India,80.2833,13.0833,[79.7833 12.5833 80.7833 13.5833],1.284,0.612,2.095,1.395,1.723,1.016,2.532,1.825,295.0,529.0
2015-04-13,Chennai,India,80.2833,13.0833,[79.7833 12.5833 80.7833 13.5833],1.284,0.576,2.108,1.383,1.696,0.968,2.548,1.796,295.0,537.0
2015-04-14,Chennai,India,80.2833,13.0833,[79.7833 12.5833 80.7833 13.5833],1.287,0.544,2.09,1.33,1.668,0.993,2.566,1.788,314.0,515.0
2015-04-15,Chennai,India,80.2833,13.0833,[79.7833 12.5833 80.7833 13.5833],1.193,0.482,2.2,1.337,1.671,0.992,2.546,1.805,292.0,539.0
2015-04-16,Chennai,India,80.2833,13.0833,[79.7833 12.5833 80.7833 13.5833],1.193,0.48,2.2,1.325,1.677,1.018,2.532,1.825,261.0,488.0
2015-04-17,Chennai,India,80.2833,13.0833,[79.7833 12.5833 80.7833 13.5833],1.363,0.528,2.313,1.468,1.757,1.072,2.615,1.891,267.0,515.0
2015-04-18,Chennai,India,80.2833,13.0833,[79.7833 12.5833 80.7833 13.5833],1.566,0.682,2.475,1.675,1.787,1.081,2.607,1.91,255.0,495.0
2015-04-19,Chennai,India,80.2833,13.0833,[79.7833 12.5833 80.7833 13.5833],1.566,0.701,2.605,1.718,1.862,1.152,2.688,1.976,255.0,505.0
2015-04-20,Chennai,India,80.2833,13.0833,[79.7833 12.5833 80.7833 13.5833],1.64,0.701,2.635,1.778,1.845,1.169,2.668,1.965,258.0,502.0
2015-04-21,Chennai,India,80.2833,13.0833,[79.7833 12.5833 80.7833 13.5833],1.771,0.754,2.648,1.844,1.882,1.205,2.678,1.985,275.0,484.0
2015-04-22,Chennai,India,80.2833,13.0833,[79.7833 12.5833 80.7833 13.5833],1.771,0.765,2.648,1.866,1.907,1.223,2.749,2.024,263.0,505.0
2015-04-23,Chennai,India,80.2833,13.0833,[79.7833 12.5833 80.7833 13.5833],1.828,0.833,2.607,1.87,1.925,1.244,2.724,2.025,283.0,475.0
2015-04-24,Chennai,India,80.2833,13.0833,[79.7833 12.5833 80.7833 13.5833],1.887,0.832,2.648,1.915,1.948,1.259,2.735,2.047,271.0,506.0
2015-04-25,Chennai,India,80.2833,13.0833,[79.7833 12.5833 80.7833 13.5833],1.867,0.754,2.586,1.834,1.934,1.225,2.736,2.036,249.0,484.0
2015-04-26,Chennai,India,80.2833,13.0833,[79.7833 12.5833 80.7833 13.5833],1.848,0.765,2.596,1.827,1.97,1.242,2.78,2.068,266.0,499.0
2015-04-27,Chennai,India,80.2833,13.0833,[79.7833 12.5833 80.7833 13.5833],1.867,0.932,2.607,1.87,1.995,1.276,2.788,2.095,258.0,497.0
2015-04-28,Chennai,India,80.2833,13.0833,[79.7833 12.5833 80.7833 13.5833],1.974,1.036,2.63,1.93,2.036,1.305,2.802,2.131,253.0,493.0
2015-04-29,Chennai,India,80.2833,13.0833,[79.7833 12.5833 80.7833 13.5833],2.019,1.074,2.763,2.031,2.073,1.274,2.878,2.165,256.0,504.0
2015-04-30,Chennai,India,80.2833,13.0833,[79.7833 12.5833 80.7833 13.5833],2.062,1.147,2.771,2.064,2.126,1.334,2.903,2.204,274.0,482.0
2015-05-01,Chennai,India,80.2833,13.0833,[79.7833 12.5833 80.7833 13.5833],2.062,1.147,2.771,2.064,2.071,1.287,2.883,2.174,274.0,533.0
2015-05-02,Chennai,India,80.2833,13.0833,[79.7833 12.5833 80.7833 13.5833],2.005,1.169,2.624,1.996,2.096,1.301,2.846,2.167,276.0,513.0
2015-05-03,Chennai,India,80.2833,13.0833,[79.7833 12.5833 80.7833 13.5833],1.916,1.147,2.539,1.909,2.103,1.29,2.86,2.175,259.0,545.0
2015-05-04,Chennai,India,80.2833,13.0833,[79.7833 12.5833 80.7833 13.5833],1.916,1.147,2.463,1.877,2.04,1.235,2.878,2.154,232.0,527.0
2015-05-05,Chennai,India,80.2833,13.0833,[79.7833 12.5833 80.7833 13.5833],1.867,1.099,2.463,1.836,2.05,1.259,2.908,2.147,228.0,537.0
2015-05-06,Chennai,India,80.2833,13.0833,[79.7833 12.5833 80.7833 13.5833],1.814,1.099,2.367,1.787,2.042,1.259,2.866,2.143,206.0,540.0
2015-05-07,Chennai,India,80.2833,13.0833,[79.7833 12.5833 80.7833 13.5833],1.814,1.099,2.367,1.788,2.043,1.296,2.879,2.162,197.0,525.0
2015-05-08,Chennai,India,80.2833,13.0833,[79.7833 12.5833 80.7833 13.5833],1.687,1.036,2.34,1.73,2.039,1.286,2.903,2.177,185.0,546.0
2015-05-09,Chennai,India,80.2833,13.0833,[79.7833 12.5833 80.7833 13.5833],1.687,1.036,2.34,1.73,2.064,1.296,2.923,2.187,185.0,515.0
2015-05-10,Chennai,India,80.2833,13.0833,[79.7833 12.5833 80.7833 13.5833],1.687,1.099,2.539,1.767,2.089,1.351,2.97,2.232,173.0,547.0
2015-05-11,Chennai,India,80.2833,13.0833,[79.7833 12.5833 80.7833 13.5833],1.687,1.099,2.539,1.754,2.124,1.368,2.997,2.247,140.0,528.0
2015-05-12,Chennai,India,80.2833,13.0833,[79.7833 12.5833 80.7833 13.5833],1.7,1.133,2.539,1.804,2.16,1.388,2.97,2.272,156.0,547.0
2015-05-13,Chennai,India,80.2833,13.0833,[79.7833 12.5833 80.7833 13.5833],1.887,1.169,2.61,1.903,2.233,1.46,3.07,2.345,157.0,542.0
2015-05-14,Chennai,India,80.2833,13.0833,[79.7833 12.5833 80.7833 13.5833],2.01,1.291,2.727,2.073,2.273,1.529,3.102,2.405,162.0,532.0
2015-05-15,Chennai,India,80.2833,13.0833,[79.7833 12.5833 80.7833 13.5833],2.002,1.291,2.727,2.065,2.312,1.559,3.121,2.42,170.0,542.0
2015-05-16,Chennai,India,80.2833,13.0833,[79.7833 12.5833 80.7833 13.5833],2.002,1.291,2.791,2.122,2.367,1.623,3.207,2.482,181.0,519.0
2015-05-17,Chennai,India,80.2833,13.0833,[79.7833 12.5833 80.7833 13.5833],2.229,1.345,3.459,2.332,2.435,1.622,3.305,2.525,153.0,539.0
2015-05-18,Chennai,India,80.2833,13.0833,[79.7833 12.5833 80.7833 13.5833],2.229,1.345,3.459,2.331,2.502,1.689,3.335,2.578,151.0,487.0
2015-05-19,Chennai,India,80.2833,13.0833,[79.7833 12.5833 80.7833 13.5833],2.229,1.345,3.459,2.331,2.45,1.647,3.314,2.547,151.0,517.0
2015-05-20,Chennai,India,80.2833,13.0833,[79.7833 12.5833 80.7833 13.5833],2.277,1.432,3.489,2.437,2.473,1.717,3.359,2.58,130.0,499.0
2015-05-21,Chennai,India,80.2833,13.0833,[79.7833 12.5833 80.7833 13.5833],2.426,1.562,3.607,2.546,2.51,1.754,3.392,2.612,154.0,506.0
2015-05-22,Chennai,India,80.2833,13.0833,[79.7833 12.5833 80.7833 13.5833],2.516,1.73,3.607,2.605,2.513,1.775,3.404,2.63,179.0,507.0
2015-05-23,Chennai,India,80.2833,13.0833,[79.7833 12.5833 80.7833 13.5833],2.56,1.732,3.512,2.667,2.528,1.778,3.399,2.651,195.0,491.0
2015-05-24,Chennai,India,80.2833,13.0833,[79.7833 12.5833 80.7833 13.5833],2.56,1.725,3.514,2.675,2.516,1.779,3.329,2.637,203.0,512.0
2015-05-25,Chennai,India,80.2833,13.0833,[79.7833 12.5833 80.7833 13.5833],2.56,1.725,3.514,2.675,2.511,1.8,3.295,2.622,203.0,480.0
2015-05-26,Chennai,India,80.2833,13.0833,[79.7833 12.5833 80.7833 13.5833],2.56,1.725,3.607,2.685,2.508,1.758,3.342,2.63,200.0,507.0
2015-05-27,Chennai,India,80.2833,13.0833,[79.7833 12.5833 80.7833 13.5833],2.56,1.683,3.494,2.645,2.473,1.702,3.301,2.596,177.0,483.0
2015-05-28,Chennai,India,80.2833,13.0833,[79.7833 12.5833 80.7833 13.5833],2.477,1.415,3.335,2.5,2.415,1.561,3.273,2.524,193.0,499.0
2015-05-29,Chennai,India,80.2833,13.0833,[79.7833 12.5833 80.7833 13.5833],2.316,1.244,3.301,2.363,2.377,1.476,3.279,2.485,185.0,498.0
2015-05-30,Chennai,India,80.2833,13.0833,[79.7833 12.5833 80.7833 13.5833],2.316,1.117,3.317,2.339,2.349,1.457,3.308,2.468,162.0,491.0
2015-05-31,Chennai,India,80.2833,13.0833,[79.7833 12.5833 80.7833 13.5833],2.195,1.117,3.262,2.269,2.289,1.442,3.246,2.418,173.0,502.0
2015-06-01,Chennai,India,80.2833,13.0833,[79.7833 12.5833 80.7833 13.5833],2.195,1.117,3.301,2.29,2.285,1.439,3.255,2.435,180.0,479.0
2015-06-02,Chennai,India,80.2833,13.0833,[79.7833 12.5833 80.7833 13.5833],2.195,1.117,3.301,2.29,2.285,1.398,3.266,2.411,180.0,530.0
2015-06-03,Chennai,India,80.2833,13.0833,[79.7833 12.5833 80.7833 13.5833],1.891,0.966,3.102,2.041,2.274,1.418,3.207,2.372,206.0,512.0
2015-06-04,Chennai,India,80.2833,13.0833,[79.7833 12.5833 80.7833 13.5833],1.891,0.966,3.111,2.075,2.244,1.393,3.19,2.361,232.0,543.0
2015-06-05,Chennai,India,80.2833,13.0833,[79.7833 12.5833 80.7833 13.5833],1.765,0.935,2.869,1.989,2.203,1.352,3.102,2.325,207.0,524.0
2015-06-06,Chennai,India,80.2833,13.0833,[79.7833 12.5833 80.7833 13.5833],1.575,0.901,2.595,1.863,2.095,1.304,3.04,2.27,211.0,534.0
2015-06-07,Chennai,India,80.2833,13.0833,[79.7833 12.5833 80.7833 13.5833],1.477,0.855,2.577,1.804,2.027,1.3,3.061,2.237,206.0,533.0
2015-06-08,Chennai,India,80.2833,13.0833,[79.7833 12.5833 80.7833 13.5833],1.477,0.855,2.501,1.758,2.007,1.262,3.066,2.212,216.0,520.0
2015-06-09,Chennai,India,80.2833,13.0833,[79.7833 12.5833 80.7833 13.5833],1.477,0.855,2.501,1.758,1.989,1.22,3.003,2.188,216.0,541.0
2015-06-10,Chennai,India,80.2833,13.0833,[79.7833 12.5833 80.7833 13.5833],1.477,0.855,2.501,1.758,1.962,1.198,2.936,2.147,216.0,510.0
2015-06-11,Chennai,India,80.2833,13.0833,[79.7833 12.5833 80.7833 13.5833],1.474,0.798,2.455,1.711,2.004,1.23,2.941,2.154,203.0,541.0
2015-06-12,Chennai,India,80.2833,13.0833,[79.7833 12.5833 80.7833 13.5833],1.477,0.855,2.455,1.757,2.051,1.281,2.954,2.202,169.0,518.0
2015-06-13,Chennai,India,80.2833,13.0833,[79.7833 12.5833 80.7833 13.5833],1.477,0.855,2.426,1.734,2.041,1.268,2.91,2.161,150.0,532.0
2015-06-14,Chennai,India,80.2833,13.0833,[79.7833 12.5833 80.7833 13.5833],1.461,0.798,2.426,1.696,1.991,1.206,2.856,2.106,159.0,531.0
2015-06-15,Chennai,India,80.2833,13.0833,[79.7833 12.5833 80.7833 13.5833],1.473,0.855,2.417,1.693,2.013,1.253,2.876,2.142,159.0,523.0
2015-06-16,Chennai,India,80.2833,13.0833,[79.7833 12.5833 80.7833 13.5833],1.461,0.807,2.426,1.658,1.927,1.163,2.753,2.047,169.0,534.0
2015-06-17,Chennai,India,80.2833,13.0833,[79.7833 12.5833 80.7833 13.5833],1.477,0.928,2.426,1.709,1.879,1.171,2.7,1.997,192.0,513.0
2015-06-18,Chennai,India,80.2833,13.0833,[79.7833 12.5833 80.7833 13.5833],1.664,1.081,2.597,1.837,1.93,1.212,2.734,2.04,166.0,531.0
2015-06-19,Chennai,India,80.2833,13.0833,[79.7833 12.5833 80.7833 13.5833],1.664,1.081,2.499,1.753,1.914,1.179,2.694,2.012,140.0,480.0
2015-06-20,Chennai,India,80.2833,13.0833,[79.7833 12.5833 80.7833 13.5833],1.664,1.081,2.478,1.749,1.909,1.145,2.677,1.999,148.0,510.0
2015-06-21,Chennai,India,80.2833,13.0833,[79.7833 12.5833 80.7833 13.5833],1.622,1.078,2.38,1.706,1.931,1.204,2.681,2.006,133.0,491.0
2015-06-22,Chennai,India,80.2833,13.0833,[79.7833 12.5833 80.7833 13.5833],1.623,1.043,2.403,1.769,1.976,1.147,2.678,2.026,143.0,503.0
2015-06-23,Chennai,India,80.2833,13.0833,[79.7833 12.5833 80.7833 13.5833],1.664,1.042,2.61,1.817,1.945,1.195,2.73,2.002,153.0,503.0
2015-06-24,Chennai,India,80.2833,13.0833,[79.7833 12.5833 80.7833 13.5833],1.606,0.986,2.603,1.767,1.849,1.077,2.668,1.915,176.0,489.0